[[{"header":{"parameterUnit":"m.s-1","parameterCategory":2,"la1":30.2992,"la2":30.254,"lo1":-89.0895,"lo2":-89.0443,"dy":0.0025,"dx":0.0025,"nx":19,"ny":19,"refTime":"2026-04-01T03:00:00:Z","depth":"0","parameterNumber":2,"parameterNumberName":"U-component_of_CURRENTS"},"data":[0,0,0,0.1433,0.1434,0.144,0.144,0.1434,0.1434,0,0,0,0,0,0,0,0,0,0,0,0.142,0.142,0.1433,0.1434,0.144,0.144,0.1434,0.1434,0,0,0,0,0,0,0,0,0,0,0,0.142,0.142,0.142,0.1434,0.144,0.144,0.1434,0.143,0,0,0,0,0,0,0,0,0,0,0.1425,0.1417,0.142,0.142,0.1434,0.144,0.144,0.143,0.1431,0.1431,0,0.1431,0,0.1442,0.1434,0.1434,0,0,0,0.1423,0.1417,0.1424,0.142,0.1434,0.144,0.1434,0.143,0.1431,0.1431,0.1431,0.1431,0.1442,0.1434,0.1434,0.1446,0.1446,0,0,0.1423,0.1416,0.1424,0.1424,0.1436,0.1434,0.1435,0.1431,0.1428,0.1431,0.1432,0.1442,0.1434,0.1434,0.1446,0.1446,0,0,0,0.1429,0.1416,0.1423,0.1424,0.1432,0.1435,0.1435,0.1427,0.1431,0.1432,0.1442,0.1434,0.1435,0.1446,0.1446,0.1478,0,0,0,0.1428,0.1421,0.1423,0.1418,0.1432,0.1432,0.1432,0.1431,0.1431,0.1442,0.1434,0.1435,0.1446,0.1446,0.1476,0.1492,0,0,0,0.142,0.142,0.1422,0.1418,0.1428,0.1433,0.1435,0.1431,0.1438,0.1434,0.1435,0.1446,0.1446,0.1475,0.149,0.1552,0,0,0,0.1412,0.1409,0.1421,0.1421,0.1428,0.1438,0.1436,0.1437,0.1434,0.1434,0.1446,0.1446,0.1475,0.1489,0.155,0.1518,0.1524,0,0,0.1404,0.1408,0.1408,0.142,0.1432,0.1436,0.1448,0.1442,0.1438,0.1444,0.1444,0.1477,0.149,0.1551,0.1532,0.1538,0,0,0,0.1403,0.1404,0.1409,0.1419,0.1432,0.1452,0.1448,0.1454,0.1463,0.144,0.1473,0.148,0.1518,0.1494,0.1499,0.1425,0.1447,0.1447,0.1447,0.1378,0.1393,0.14,0.1421,0.1431,0.1459,0.1475,0.1484,0.1473,0.1484,0.1503,0.1565,0.1538,0.1542,0.1465,0.1498,0.1498,0.1498,0.1498,0.1363,0.1374,0.1396,0.1407,0.1441,0.1455,0.1502,0.1512,0.1557,0.1525,0.1562,0.1523,0.1549,0.1465,0.15,0.15,0.15,0.15,0.1499,0.1339,0.1356,0.1357,0.1379,0.1415,0.1456,0.1512,0.1556,0.1591,0.1622,0.1624,0.1622,0.1554,0.1655,0.1655,0.1656,0.1656,0.1656,0.1656,0.1325,0.1335,0.1327,0.1351,0.1368,0.1426,0.1518,0.1572,0.1648,0.1659,0.1659,0.1558,0.1614,0.1614,0.1662,0.1661,0.166,0.166,0.1659,0.1336,0.1311,0.1299,0.13,0.1333,0.1344,0.146,0.1569,0.165,0.1689,0.1605,0.1686,0.1682,0.1676,0.1678,0.174,0.174,0.174,0.174,0.1336,0.1323,0.1288,0.1269,0.1281,0.1311,0.1326,0.1423,0.1536,0.1552,0.1597,0.1526,0.1526,0.1508,0.1506,0.1503,0.1519,0.1518,0.1518,0.1355,0.1332,0.1299,0.1246,0.1247,0.1247,0.1206,0.1213,0.1378,0.1502,0.1503,0.1512,0.14,0.1406,0.1368,0.1372,0.1363,0,0]},{"header":{"parameterUnit":"m.s-1","parameterCategory":2,"la1":30.2992,"la2":30.254,"lo1":-89.0895,"lo2":-89.0443,"dy":0.0025,"dx":0.0025,"nx":19,"ny":19,"refTime":"2026-04-01T03:00:00:Z","depth":"0","parameterNumber":3,"parameterNumberName":"V-component_of_CURRENTS"},"data":[0,0,0,0.0147,0.0146,0.0087,0.0086,0.004,0.004,0,0,0,0,0,0,0,0,0,0,0,0.0172,0.0171,0.0147,0.0145,0.0087,0.0086,0.004,0.004,0,0,0,0,0,0,0,0,0,0,0,0.0172,0.0171,0.0171,0.0145,0.0087,0.0086,0.004,0.0077,0,0,0,0,0,0,0,0,0,0,0.0131,0.0154,0.0171,0.0171,0.0145,0.0087,0.0086,0.0079,0.0075,0.0075,0,0.0068,0,0.0051,0.0037,0.0037,0,0,0,0.0145,0.0158,0.0136,0.0171,0.0144,0.0087,0.0113,0.0076,0.0072,0.007,0.0067,0.0065,0.005,0.0037,0.0037,0.0004,0.0004,0,0,0.0148,0.0165,0.0139,0.0134,0.0131,0.0115,0.0111,0.0073,0.0074,0.0067,0.0063,0.005,0.0037,0.0037,0.0004,0.0004,0,0,0,0.0158,0.0168,0.0147,0.0136,0.0122,0.0113,0.0109,0.0076,0.0067,0.0063,0.0049,0.0037,0.0036,0.0004,0.0004,0.0048,0,0,0,0.016,0.0173,0.0149,0.0159,0.0123,0.0095,0.0112,0.007,0.0065,0.0049,0.0037,0.0036,0.0004,0.0004,0.0047,0.0098,0,0,0,0.0174,0.0175,0.0167,0.016,0.0133,0.0095,0.0084,0.0068,0.0057,0.0037,0.0036,0.0004,0.0004,0.0046,0.0095,0.0164,0,0,0,0.0194,0.0193,0.0168,0.0159,0.0134,0.01,0.0084,0.006,0.0044,0.0036,0.0004,0.0004,0.0046,0.0093,0.0161,0.0251,0.027,0,0,0.0205,0.0195,0.0187,0.0163,0.0142,0.0108,0.0094,0.0067,0.0041,0.0019,0.0018,0.0047,0.0095,0.0163,0.0238,0.0258,0,0,0,0.0199,0.0197,0.0184,0.0165,0.013,0.0126,0.0082,0.0065,0.0042,0.0029,0.003,0.0059,0.0102,0.0149,0.0164,0.016,0.0003,0.0003,0.0003,0.025,0.022,0.0216,0.0184,0.0164,0.0131,0.0128,0.0099,0.0054,0.0047,0.0081,0.0147,0.0195,0.0208,0.0201,0.0048,0.0048,0.0048,0.0048,0.0284,0.0278,0.0254,0.0242,0.0223,0.0211,0.0179,0.0156,0.016,0.0099,0.0137,0.0175,0.0228,0.0214,0.0051,0.005,0.005,0.005,0.005,0.0321,0.0314,0.0311,0.0306,0.0312,0.0281,0.0324,0.0282,0.0232,0.0256,0.0324,0.0324,0.0329,0.0276,0.0277,0.0277,0.0278,0.0278,0.0278,0.0359,0.0353,0.0373,0.0371,0.0385,0.0415,0.0413,0.0434,0.0446,0.0406,0.0407,0.0354,0.0218,0.0229,0.0286,0.0285,0.0284,0.0283,0.0283,0.0379,0.0391,0.0424,0.0446,0.0493,0.056,0.0571,0.0647,0.0658,0.0696,0.0576,0.0488,0.0498,0.0485,0.0502,0.0627,0.0627,0.0627,0.0627,0.0403,0.0406,0.0465,0.0517,0.0584,0.0628,0.0748,0.0803,0.0791,0.0765,0.0712,0.0657,0.0644,0.0657,0.064,0.0657,0.0819,0.0819,0.0819,0.042,0.0439,0.0485,0.0536,0.0616,0.07,0.0806,0.0896,0.0878,0.0821,0.0691,0.0683,0.0588,0.0567,0.057,0.0547,0.0568,0,0]}],[{"header":{"parameterUnit":"m.s-1","parameterCategory":2,"la1":30.2992,"la2":30.254,"lo1":-89.0895,"lo2":-89.0443,"dy":0.0025,"dx":0.0025,"nx":19,"ny":19,"refTime":"2026-04-01T03:00:00:Z","depth":"2","parameterNumber":2,"parameterNumberName":"U-component_of_CURRENTS"},"data":[0,0,0,0.1509,0.1509,0.1514,0.1514,0.1511,0.1511,0,0,0,0,0,0,0,0,0,0,0,0.1497,0.1497,0.1509,0.1509,0.1514,0.1514,0.1511,0.1511,0,0,0,0,0,0,0,0,0,0,0,0.1497,0.1497,0.1497,0.1509,0.1514,0.1514,0.1511,0.1507,0,0,0,0,0,0,0,0,0,0,0.1503,0.1495,0.1497,0.1497,0.1509,0.1514,0.1514,0.1507,0.1508,0.151,0,0.151,0,0.152,0.1512,0.1512,0,0,0,0.1499,0.1494,0.1501,0.1497,0.1509,0.1514,0.1509,0.1508,0.1508,0.151,0.151,0.151,0.1519,0.1512,0.1512,0.1527,0.1527,0,0,0.1499,0.1492,0.1501,0.1502,0.151,0.1509,0.1509,0.1508,0.1505,0.151,0.151,0.1519,0.1512,0.1512,0.1527,0.1527,0,0,0,0.1505,0.1492,0.1499,0.1501,0.1508,0.1509,0.151,0.1504,0.1508,0.1511,0.1519,0.1512,0.1512,0.1526,0.1527,0.1554,0,0,0,0.1504,0.1497,0.1499,0.1494,0.1508,0.1508,0.1506,0.1508,0.1508,0.1519,0.1512,0.1512,0.1526,0.1527,0.1553,0.1567,0,0,0,0.1497,0.1496,0.1497,0.1494,0.1502,0.1508,0.1511,0.1508,0.1514,0.1512,0.1512,0.1526,0.1527,0.1552,0.1565,0.1626,0,0,0,0.1488,0.1485,0.1497,0.1496,0.1502,0.1514,0.1511,0.1513,0.1511,0.1512,0.1526,0.1527,0.1552,0.1564,0.1624,0.158,0.1585,0,0,0.1481,0.1484,0.1485,0.1496,0.1509,0.1512,0.1524,0.1518,0.1516,0.1524,0.1525,0.1553,0.1565,0.1626,0.1594,0.1599,0,0,0,0.148,0.148,0.1485,0.1496,0.151,0.1528,0.1525,0.1531,0.154,0.1519,0.1551,0.1557,0.1595,0.1564,0.1568,0.1528,0.1528,0.1528,0.1528,0.1445,0.1465,0.1473,0.1497,0.1509,0.1536,0.1551,0.156,0.155,0.156,0.1577,0.1638,0.1603,0.1606,0.1573,0.1574,0.1574,0.1574,0.1574,0.1427,0.1439,0.1466,0.1479,0.1515,0.1527,0.1576,0.1585,0.163,0.1599,0.1635,0.159,0.1611,0.1576,0.1576,0.1575,0.1575,0.1575,0.1575,0.1393,0.1413,0.1416,0.1443,0.1481,0.1524,0.1579,0.1624,0.166,0.169,0.1684,0.1682,0.1674,0.1721,0.1722,0.1722,0.1722,0.1723,0.1723,0.1371,0.1385,0.1377,0.1408,0.1427,0.1485,0.158,0.1633,0.1705,0.1715,0.1715,0.1688,0.1683,0.1683,0.1728,0.1727,0.1726,0.1726,0.1726,0.1382,0.1353,0.1344,0.1347,0.1386,0.1395,0.1513,0.1616,0.1697,0.1732,0.1738,0.1736,0.1731,0.1727,0.1728,0.1782,0.1782,0.1782,0.1782,0.1381,0.1366,0.1334,0.1316,0.1328,0.1359,0.136,0.1417,0.1556,0.1587,0.1595,0.1521,0.1524,0.1504,0.1504,0.1499,0.1493,0.1492,0.1492,0.1407,0.1381,0.1351,0.1295,0.1296,0.1291,0.1227,0.1162,0.128,0.1475,0.1488,0.1773,0.1684,0.1681,0.1664,0.1659,0.1656,0,0]},{"header":{"parameterUnit":"m.s-1","parameterCategory":2,"la1":30.2992,"la2":30.254,"lo1":-89.0895,"lo2":-89.0443,"dy":0.0025,"dx":0.0025,"nx":19,"ny":19,"refTime":"2026-04-01T03:00:00:Z","depth":"2","parameterNumber":3,"parameterNumberName":"V-component_of_CURRENTS"},"data":[0,0,0,0.0088,0.0087,0.0029,0.0028,-0.0018,-0.0018,0,0,0,0,0,0,0,0,0,0,0,0.0113,0.0113,0.0088,0.0087,0.0029,0.0028,-0.0018,-0.0018,0,0,0,0,0,0,0,0,0,0,0,0.0113,0.0113,0.0112,0.0087,0.0029,0.0028,-0.0018,0.0019,0,0,0,0,0,0,0,0,0,0,0.0072,0.0096,0.0113,0.0112,0.0086,0.0029,0.0028,0.002,0.0017,0.0017,0,0.001,0,-0.0007,-0.0021,-0.0021,0,0,0,0.0086,0.0099,0.0078,0.0112,0.0086,0.0029,0.0055,0.0018,0.0014,0.0012,0.0009,0.0007,-0.0007,-0.0021,-0.0021,-0.0048,-0.0049,0,0,0.0089,0.0107,0.0081,0.0075,0.0074,0.0057,0.0053,0.0015,0.0016,0.0009,0.0005,-0.0008,-0.0021,-0.0021,-0.0048,-0.0048,0,0,0,0.0099,0.011,0.0089,0.0078,0.0064,0.0055,0.0051,0.0018,0.001,0.0005,-0.0009,-0.0021,-0.0022,-0.0048,-0.0048,-0.0004,0,0,0,0.0101,0.0115,0.009,0.0101,0.0065,0.0037,0.0055,0.0012,0.0007,-0.0008,-0.0021,-0.0022,-0.0048,-0.0048,-0.0006,0.0043,0,0,0,0.0115,0.0117,0.0109,0.0102,0.0076,0.0037,0.0027,0.0011,-0.0001,-0.0021,-0.0022,-0.0048,-0.0048,-0.0007,0.004,0.0103,0,0,0,0.0136,0.0135,0.011,0.0102,0.0076,0.0044,0.0027,0.0003,-0.0013,-0.0022,-0.0048,-0.0048,-0.0007,0.0038,0.01,0.0168,0.0185,0,0,0.0147,0.0137,0.013,0.0106,0.0085,0.0052,0.004,0.0012,-0.0014,-0.0034,-0.0035,-0.0005,0.004,0.0102,0.0163,0.018,0,0,0,0.0141,0.014,0.0127,0.0108,0.0075,0.0071,0.0029,0.0012,-0.0009,-0.0025,-0.0019,0.0008,0.0046,0.0081,0.0094,-0.0049,-0.0049,-0.0049,-0.0049,0.0189,0.0161,0.0158,0.0128,0.011,0.008,0.0077,0.0049,0.0006,0.0,0.0032,0.0097,0.0131,0.0142,0.0002,0.0003,0.0003,0.0003,0.0003,0.0221,0.0216,0.0195,0.0185,0.0168,0.0159,0.0129,0.0108,0.0112,0.0054,0.0089,0.011,0.016,0.0006,0.0006,0.0005,0.0005,0.0005,0.0004,0.0253,0.0247,0.0247,0.0245,0.0254,0.0227,0.0268,0.0229,0.0181,0.0204,0.0253,0.0253,0.016,0.0221,0.0222,0.0222,0.0223,0.0223,0.0223,0.0285,0.0283,0.0303,0.0306,0.0321,0.0352,0.0353,0.0372,0.0375,0.0332,0.0332,0.0172,0.0164,0.0173,0.0231,0.023,0.0229,0.0228,0.0227,0.0304,0.0315,0.0348,0.0372,0.0421,0.0481,0.0496,0.056,0.0569,0.0597,0.0407,0.04,0.0406,0.0394,0.0407,0.0524,0.0524,0.0524,0.0524,0.0325,0.0328,0.0387,0.0438,0.0502,0.0541,0.0631,0.064,0.0615,0.0545,0.0543,0.0482,0.0471,0.0475,0.0461,0.0474,0.0607,0.0607,0.0607,0.0344,0.0361,0.0409,0.0456,0.0531,0.0601,0.0656,0.0633,0.0572,0.0603,0.0487,0.0543,0.0446,0.0431,0.0428,0.041,0.0425,0,0]}],[{"header":{"parameterUnit":"m.s-1","parameterCategory":2,"la1":30.2992,"la2":30.254,"lo1":-89.0895,"lo2":-89.0443,"dy":0.0025,"dx":0.0025,"nx":19,"ny":19,"refTime":"2026-04-01T03:00:00:Z","depth":"4","parameterNumber":2,"parameterNumberName":"U-component_of_CURRENTS"},"data":[0,0,0,0.0866,0.0867,0.092,0.092,0.0982,0.0982,0,0,0,0,0,0,0,0,0,0,0,0.086,0.0861,0.0866,0.0867,0.092,0.092,0.0982,0.0982,0,0,0,0,0,0,0,0,0,0,0,0.086,0.0861,0.0861,0.0867,0.092,0.092,0.0981,0.0945,0,0,0,0,0,0,0,0,0,0,0.0895,0.089,0.0861,0.0861,0.0868,0.092,0.092,0.0943,0.0947,0.0954,0,0.0969,0,0.0969,0.0985,0.0986,0,0,0,0.0874,0.0887,0.0896,0.0862,0.0868,0.092,0.0898,0.0946,0.095,0.0959,0.097,0.0972,0.097,0.0986,0.0986,0.1084,0.1085,0,0,0.0871,0.0874,0.0893,0.0899,0.089,0.0896,0.09,0.0948,0.096,0.097,0.0973,0.0971,0.0986,0.0986,0.1084,0.1085,0,0,0,0.0858,0.0872,0.088,0.0897,0.0902,0.0898,0.0902,0.0958,0.0959,0.0973,0.0971,0.0986,0.0987,0.1083,0.1084,0.1096,0,0,0,0.0857,0.0863,0.0879,0.0881,0.0901,0.0931,0.091,0.0957,0.0961,0.0971,0.0986,0.0987,0.1082,0.1083,0.1094,0.1128,0,0,0,0.0856,0.0863,0.0871,0.0881,0.0899,0.093,0.0935,0.0958,0.096,0.0986,0.0988,0.1082,0.1083,0.1092,0.1125,0.1125,0,0,0,0.0854,0.0867,0.0871,0.0881,0.0898,0.09,0.0935,0.0969,0.0994,0.0987,0.1082,0.1084,0.1092,0.1122,0.1123,0.0957,0,0,0,0.0863,0.0868,0.0869,0.0874,0.0871,0.0892,0.0919,0.0987,0.1024,0.1065,0.1067,0.1095,0.1124,0.1124,0.1058,0,0,0,0,0.0866,0.0869,0.0866,0.0872,0.0872,0.0921,0.096,0.0985,0.1076,0.1045,0.1126,0.1146,0.1144,0.1044,0.1092,0.1092,0.1092,0.1091,0.1091,0.0896,0.0882,0.0868,0.0869,0.0894,0.0947,0.0993,0.1052,0.1068,0.1132,0.1176,0.1221,0.1118,0.1186,0.1186,0.1186,0.1186,0.1187,0.1187,0.0902,0.0875,0.0882,0.0879,0.0923,0.0973,0.1047,0.1099,0.1193,0.1207,0.1203,0.1092,0.1189,0.1188,0.1188,0.1188,0.1187,0.1187,0.1187,0.0915,0.0884,0.0901,0.091,0.0953,0.1019,0.1071,0.1166,0.1224,0.1269,0.1161,0.124,0.1213,0.127,0.127,0.127,0.1271,0.1271,0.1271,0.0912,0.09,0.0922,0.0937,0.0954,0.1017,0.1114,0.1145,0.1225,0.1191,0.1296,0.1249,0.1246,0.1219,0.1273,0.1273,0.1273,0.1272,0.1272,0.0858,0.0912,0.0921,0.0942,0.096,0.0973,0.1058,0.1066,0.1097,0.1087,0.1122,0.1129,0.111,0.1112,0.1078,0.1093,0.1091,0.1089,0,0.0838,0.0859,0.0885,0.0901,0.0901,0.0937,0.0904,0.0937,0.1003,0.0984,0.1124,0.1166,0.1169,0.1149,0.1147,0.1108,0,0,0,0.0786,0.0814,0.0813,0.0862,0.0854,0.0845,0.0887,0.0869,0.0993,0.0944,0.104,0.1053,0.1151,0.1281,0.1269,0.1266,0.1221,0,0]},{"header":{"parameterUnit":"m.s-1","parameterCategory":2,"la1":30.2992,"la2":30.254,"lo1":-89.0895,"lo2":-89.0443,"dy":0.0025,"dx":0.0025,"nx":19,"ny":19,"refTime":"2026-04-01T03:00:00:Z","depth":"4","parameterNumber":3,"parameterNumberName":"V-component_of_CURRENTS"},"data":[0,0,0,0.0072,0.0072,0.0082,0.0082,0.0142,0.0143,0,0,0,0,0,0,0,0,0,0,0,0.0072,0.0072,0.0072,0.0072,0.0082,0.0082,0.0142,0.0143,0,0,0,0,0,0,0,0,0,0,0,0.0072,0.0072,0.0072,0.0072,0.0082,0.0082,0.0142,0.0124,0,0,0,0,0,0,0,0,0,0,0.011,0.0106,0.0072,0.0072,0.0072,0.0082,0.0082,0.0123,0.0126,0.0149,0,0.0147,0,0.0143,0.0147,0.0147,0,0,0,0.0079,0.0104,0.0099,0.0072,0.0072,0.0082,0.008,0.0124,0.0127,0.0152,0.0147,0.0149,0.0144,0.0148,0.0148,0.026,0.0261,0,0,0.0079,0.0084,0.0097,0.01,0.0071,0.0079,0.008,0.0125,0.0133,0.0147,0.015,0.0144,0.0148,0.0149,0.026,0.026,0,0,0,0.0072,0.0084,0.0077,0.0098,0.0094,0.0079,0.008,0.0131,0.0126,0.0151,0.0145,0.0148,0.0149,0.0259,0.026,0.0268,0,0,0,0.0072,0.0079,0.0077,0.0081,0.0093,0.0108,0.0085,0.0123,0.0128,0.0145,0.0148,0.015,0.0258,0.0259,0.0266,0.0232,0,0,0,0.0072,0.008,0.0077,0.0081,0.0081,0.0106,0.0105,0.0124,0.0124,0.0147,0.015,0.0257,0.0259,0.0264,0.0231,0.0222,0,0,0,0.0082,0.0085,0.0078,0.009,0.008,0.0133,0.0104,0.0144,0.017,0.0149,0.0258,0.026,0.0263,0.023,0.0222,0.0215,0,0,0,0.009,0.0086,0.0095,0.0088,0.0126,0.0133,0.0194,0.0203,0.0204,0.0246,0.0248,0.0267,0.0231,0.0222,0.032,0,0,0,0,0.0101,0.0106,0.012,0.0137,0.0172,0.02,0.0232,0.0247,0.0272,0.0224,0.03,0.0277,0.0271,0.0269,0.0268,0.0268,0.0268,0.0268,0.0268,0.012,0.013,0.0157,0.0179,0.0216,0.0265,0.0285,0.0312,0.0328,0.0344,0.0311,0.0341,0.0345,0.0361,0.0361,0.0361,0.0361,0.0361,0.0361,0.0134,0.0144,0.0172,0.0194,0.0233,0.0286,0.0334,0.0338,0.0353,0.0362,0.0357,0.0312,0.0363,0.0363,0.0362,0.0362,0.0362,0.0362,0.0362,0.0146,0.0147,0.0162,0.0197,0.0234,0.028,0.0308,0.0327,0.0335,0.0329,0.0324,0.0335,0.0301,0.0333,0.0333,0.0333,0.0333,0.0333,0.0333,0.0137,0.0154,0.0175,0.0202,0.0225,0.0256,0.0289,0.0297,0.0306,0.031,0.0321,0.0331,0.0331,0.03,0.033,0.0331,0.0331,0.0331,0.0332,0.0119,0.0145,0.0171,0.0195,0.0245,0.0266,0.029,0.0293,0.029,0.028,0.0305,0.0307,0.029,0.0291,0.0258,0.0276,0.0276,0.0276,0,0.0112,0.0126,0.0169,0.0212,0.0255,0.0279,0.0293,0.0295,0.0281,0.0278,0.0284,0.0313,0.0315,0.0297,0.0298,0.026,0,0,0,0.0094,0.0116,0.0142,0.0204,0.0257,0.0285,0.0297,0.0291,0.0286,0.0279,0.0275,0.0275,0.0326,0.0324,0.03,0.0302,0.0249,0,0]}]]